Regional Weather Roundup
Issued by NWS Little Rock, AR

Home | Current Version | Previous Version | Text Only | Print | Product List | Glossary Off
Versions: 1 2 3 4 5 6 7 8 9 10 11 12 13 14 15 16 17 18 19 20 21 22 23 24 25 26 27 28 29 30 31

000
ASUS44 KLZK 111505
RWRLZK

WEATHER ROUNDUP FOR ARKANSAS
NATIONAL WEATHER SERVICE LITTLE ROCK AR
900 AM CST MON DEC 11 2017

NOTE: "FAIR" INDICATES FEW OR NO CLOUDS BELOW 12,000 FEET WITH NO
SIGNIFICANT WEATHER AND/OR OBSTRUCTIONS TO VISIBILITY.

ARZ001-003-010-029-111600-
NORTHWEST ARKANSAS

CITY           SKY/WX    TMP DP  RH WIND       PRES   REMARKS
FAYETTEVILLE   SUNNY     39  30  70 S6        30.13F
FORT SMITH     SUNNY     39  31  72 CALM      30.17S
HARRISON       SUNNY     59  15  18 W8G18     30.08F
BENTONVILLE    SUNNY     46  24  42 SW8       30.13F
ROGERS         SUNNY     47  23  38 SW8       30.12F
SILOAM SPGS    SUNNY     46  26  45 SW9       30.14F
HIGHFILL       SUNNY     49  22  34 SW13      30.12F
SPRINGDALE     SUNNY     50  21  32 SW7       30.14S
$$

ARZ004-005-016-111600-
NORTH CENTRAL ARKANSAS

CITY           SKY/WX    TMP DP  RH WIND       PRES   REMARKS
BATESVILLE     SUNNY     51  26  37 SW5       30.11F
FLIPPIN        SUNNY     37  29  72 NE5       30.09F
MTN HOME       SUNNY     48  23  37 W5        30.07
$$

ARZ040-041-111600-
WEST CENTRAL ARKANSAS

CITY           SKY/WX    TMP DP  RH WIND       PRES   REMARKS
MENA           SUNNY     52  32  46 CALM      30.18R
MOUNT IDA      SUNNY     39  31  72 CALM      30.14F
$$

ARZ009-017-025-026-028-111600-
NORTHEAST ARKANSAS

CITY           SKY/WX    TMP DP  RH WIND       PRES   REMARKS
CORNING        FAIR      41  32  70 SW7       30.11S
JONESBORO      SUNNY     45  32  60 SW10      30.12S
NEWPORT        MOSUNNY   42  34  73 S7        30.13F
WALNUT RIDGE   SUNNY     41  32  70 S6        30.11F
BLYTHEVILLE    SUNNY     43  34  70 S9        30.12F
NW BLYTHEVILLE SUNNY     41  34  75 S10       30.12F
$$

ARZ022-023-033-042-044-111600-
CENTRAL ARKANSAS

CITY           SKY/WX    TMP DP  RH WIND       PRES   REMARKS
LITTLE ROCK    SUNNY     46  30  53 SW3       30.16F
N LITTLE ROCK    N/A     55  27  34 W5        30.17F
JACKSONVILLE   SUNNY     44  30  58 CALM      30.14F
SEARCY         MOSUNNY   45  36  70 NE3       30.14F
HOT SPRINGS    SUNNY     41  35  79 CALM      30.17F
RUSSELLVILLE   SUNNY     38  31  76 W3        30.15F
CLINTON        FAIR      32  28  86 CALM      30.15F
$$

ARZ036-111600-
EAST ARKANSAS

CITY           SKY/WX    TMP DP  RH WIND       PRES   REMARKS
WEST MEMPHIS   SUNNY     44  36  73 S7        30.14F
$$

ARZ050-053-066-070-073-111600-
SOUTHWEST ARKANSAS

CITY           SKY/WX    TMP DP  RH WIND       PRES   REMARKS
ARKADELPHIA    FAIR      39  32  76 CALM      30.20F
CAMDEN         SUNNY     45  30  57 CALM      30.21S
TEXARKANA      SUNNY     47  30  51 SW7       30.23R
EL DORADO      SUNNY     46  37  71 S5        30.22F
DE QUEEN       SUNNY     36  33  89 CALM      30.20F
$$

ARZ056-057-069-111600-
SOUTHEAST ARKANSAS

CITY           SKY/WX    TMP DP  RH WIND       PRES   REMARKS
PINE BLUFF     SUNNY     45  31  58 SW8       30.18F
STUTTGART      SUNNY     45  34  65 SW7       30.16F
MONTICELLO     SUNNY     48  30  49 W6        30.20F

$$






USA.gov is the U.S. government's official web portal to all federal, state and local government web resources and services.